Tracking 29781 objects as of 14-Oct-2024
HD Live streaming from Space Station
objects crossing your sky now

BREEZE-KM R/B

Track BREEZE-KM R/B now!
10-day predictions


NORAD ID: 41580
Int'l Code: 2016-034B
Perigee: 661.7 km
Apogee: 965.5 km
Inclination: 99.2 °
Period: 101.0 minutes
Semi major axis: 7184 km
RCS: Unknown
Launch date: June 4, 2016
Source: Commonwealth of Independent States (former USSR) (CIS)
Launch site: PLESETSK MISSILE AND SPACE COMPLEX (PKMTR)

Note: This is a ROCKET BODY
Your satellite tracking list
Your tracking list is empty




NASA's NSSDC Master Catalog

Two Line Element Set (TLE):
1 41580U 16034B   24288.51772867  .00000575  00000-0  20965-3 0  9991
2 41580  99.2324 112.1113 0211423 138.8729 222.8603 14.25611862434965
Source of the keplerian elements: AFSPC